| time (UTC) | temp F | wind direction | speed MPH | gust MPH | rain 1hr in | rain 24hr in | rain mn in | humidity % | barometer mb |
| 20260505014329 | 85 | 315 | 0.0 | 0.0 | 0.14 | 0.14 | 0.00 | 47 | 1010.6 |
| 20260505013742 | 86 | 315 | 0.0 | 0.0 | 0.09 | 0.09 | 0.00 | 47 | 1010.5 |
| 20260505013155 | 86 | 270 | 0.0 | 0.0 | 0.05 | 0.05 | 0.00 | 46 | 1010.6 |
| 20260505012608 | 86 | 315 | 0.0 | 1.0 | 0.01 | 0.01 | 0.00 | 46 | 1010.6 |
| 20260505012021 | 86 | 270 | 0.0 | 1.0 | 0.01 | 0.01 | 0.00 | 46 | 1010.7 |
| 20260505011434 | 86 | 225 | 0.0 | 0.0 | 0.00 | 0.00 | 0.00 | 46 | 1010.7 |
| 20260505010847 | 86 | 270 | 0.0 | 0.0 | 0.00 | 0.00 | 0.00 | 46 | 1010.7 |
| 20260505010300 | 86 | 270 | 0.0 | 0.0 | 0.00 | 0.00 | 0.00 | 46 | 1010.6 |
| 20260505005713 | 86 | 270 | 0.0 | 0.0 | 0.00 | 0.00 | 0.00 | 46 | 1010.6 |
| 20260505005126 | 86 | 270 | 0.0 | 0.0 | 0.00 | 0.00 | 0.00 | 46 | 1010.4 |
| 20260505004539 | 86 | 270 | 0.0 | 0.0 | 0.00 | 0.00 | 0.00 | 46 | 1010.4 |
| 20260505003952 | 86 | 225 | 0.0 | 1.0 | 0.00 | 0.00 | 0.00 | 46 | 1010.4 |
| 20260505003405 | 86 | 225 | 0.0 | 1.0 | 0.00 | 0.00 | 0.00 | 46 | 1010.3 |
| 20260505002818 | 85 | 270 | 0.0 | 1.0 | 0.00 | 0.00 | 0.00 | 46 | 1010.2 |
| 20260505002231 | 85 | 315 | 0.0 | 1.0 | 0.00 | 0.00 | 0.00 | 46 | 1010.2 |
| 20260505001644 | 85 | 0 | 0.0 | 0.0 | 0.00 | 0.00 | 0.00 | 46 | 1010.1 |
| 20260505001057 | 85 | 0 | 0.0 | 1.0 | 0.00 | 0.00 | 0.00 | 47 | 1010.1 |
| 20260505000510 | 85 | 0 | 0.0 | 1.0 | 0.00 | 0.00 | 0.00 | 47 | 1010.1 |
| 20260504235923 | 85 | 315 | 0.0 | 1.0 | 0.00 | 0.00 | 0.00 | 47 | 1010.0 |
| 20260504235336 | 85 | 0 | 0.0 | 1.0 | 0.00 | 0.00 | 0.00 | 47 | 1009.8 |
| 20260504234749 | 85 | 0 | 0.0 | 1.0 | 0.00 | 0.00 | 0.00 | 46 | 1009.9 |
| 20260504234202 | 85 | 315 | 0.0 | 0.0 | 0.00 | 0.00 | 0.00 | 47 | 1009.8 |
| 20260504233615 | 85 | 0 | 0.0 | 0.0 | 0.00 | 0.00 | 0.00 | 47 | 1009.8 |
| 20260504233028 | 85 | 315 | 0.0 | 1.0 | 0.00 | 0.00 | 0.00 | 47 | 1010.1 |
| 20260504232441 | 85 | 315 | 0.0 | 1.0 | 0.00 | 0.00 | 0.00 | 47 | 1010.0 |
| 20260504231854 | 85 | 270 | 0.0 | 0.0 | 0.00 | 0.00 | 0.00 | 47 | 1010.1 |
| 20260504231307 | 84 | 315 | 0.0 | 0.0 | 0.00 | 0.00 | 0.00 | 47 | 1010.0 |
| 20260504230720 | 84 | 270 | 0.0 | 1.0 | 0.00 | 0.00 | 0.00 | 47 | 1009.8 |
| 20260504230132 | 84 | 270 | 0.0 | 1.0 | 0.00 | 0.00 | 0.00 | 47 | 1009.8 |
| 20260504225545 | 84 | 225 | 0.0 | 0.0 | 0.00 | 0.00 | 0.00 | 47 | 1009.7 |
| 20260504224959 | 84 | 0 | 0.0 | 0.0 | 0.00 | 0.00 | 0.00 | 47 | 1009.6 |
| 20260504224411 | 84 | 315 | 0.0 | 1.0 | 0.00 | 0.00 | 0.00 | 47 | 1009.4 |
| 20260504223824 | 84 | 315 | 0.0 | 1.0 | 0.00 | 0.00 | 0.00 | 47 | 1009.4 |
| 20260504223237 | 84 | 270 | 0.0 | 0.0 | 0.00 | 0.00 | 0.00 | 46 | 1009.6 |
| 20260504222650 | 84 | 270 | 0.0 | 0.0 | 0.00 | 0.00 | 0.00 | 46 | 1009.4 |
| 20260504222103 | 84 | 270 | 0.0 | 0.0 | 0.00 | 0.00 | 0.00 | 46 | 1009.5 |
| 20260504221516 | 84 | 270 | 0.0 | 0.0 | 0.00 | 0.00 | 0.00 | 46 | 1009.4 |
| 20260504220929 | 84 | 270 | 0.0 | 0.0 | 0.00 | 0.00 | 0.00 | 46 | 1009.3 |
| 20260504220342 | 84 | 270 | 0.0 | 0.0 | 0.00 | 0.00 | 0.00 | 45 | 1009.3 |
| 20260504215755 | 84 | 315 | 0.0 | 0.0 | 0.00 | 0.00 | 0.00 | 45 | 1009.1 |
| 20260504215208 | 84 | 315 | 0.0 | 0.0 | 0.00 | 0.00 | 0.00 | 45 | 1009.1 |
| 20260504214621 | 84 | 315 | 0.0 | 0.0 | 0.00 | 0.00 | 0.00 | 45 | 1009.2 |
| 20260504214034 | 84 | 315 | 0.0 | 0.0 | 0.00 | 0.00 | 0.00 | 45 | 1009.2 |
| 20260504213447 | 84 | 315 | 0.0 | 0.0 | 0.00 | 0.00 | 0.00 | 45 | 1009.1 |
| 20260504212900 | 84 | 315 | 0.0 | 1.0 | 0.00 | 0.00 | 0.00 | 45 | 1009.0 |
| 20260504212313 | 84 | 315 | 0.0 | 1.0 | 0.00 | 0.00 | 0.00 | 45 | 1009.0 |
| 20260504211726 | 84 | 0 | 0.0 | 0.0 | 0.00 | 0.00 | 0.00 | 45 | 1008.8 |
| 20260504211139 | 84 | 0 | 0.0 | 0.0 | 0.00 | 0.00 | 0.00 | 44 | 1008.9 |
| 20260504210552 | 84 | 270 | 0.0 | 0.0 | 0.00 | 0.00 | 0.00 | 44 | 1009.1 |
| 20260504210005 | 84 | 0 | 0.0 | 0.0 | 0.00 | 0.00 | 0.00 | 44 | 1008.9 |
| 20260504205418 | 84 | 315 | 0.0 | 0.0 | 0.00 | 0.00 | 0.00 | 44 | 1009.0 |
| 20260504204831 | 84 | 315 | 0.0 | 0.0 | 0.00 | 0.00 | 0.00 | 44 | 1009.0 |
| 20260504204244 | 84 | 315 | 0.0 | 0.0 | 0.00 | 0.00 | 0.00 | 44 | 1008.9 |
| 20260504203657 | 84 | 270 | 0.0 | 0.0 | 0.00 | 0.00 | 0.00 | 44 | 1008.9 |
| 20260504203110 | 84 | 270 | 0.0 | 0.0 | 0.00 | 0.00 | 0.00 | 44 | 1008.7 |
| 20260504202523 | 84 | 270 | 0.0 | 0.0 | 0.00 | 0.00 | 0.00 | 44 | 1008.8 |
| 20260504201936 | 84 | 270 | 0.0 | 0.0 | 0.00 | 0.00 | 0.00 | 44 | 1008.8 |
| 20260504201349 | 84 | 270 | 0.0 | 0.0 | 0.00 | 0.00 | 0.00 | 44 | 1008.7 |
| 20260504200802 | 84 | 270 | 0.0 | 0.0 | 0.00 | 0.00 | 0.00 | 43 | 1008.6 |
| 20260504200215 | 84 | 270 | 0.0 | 0.0 | 0.00 | 0.00 | 0.00 | 43 | 1008.6 |
| 20260504195628 | 84 | 270 | 0.0 | 0.0 | 0.00 | 0.00 | 0.00 | 43 | 1008.6 |
| 20260504195041 | 84 | 225 | 0.0 | 0.0 | 0.00 | 0.00 | 0.00 | 43 | 1008.5 |
| 20260504194453 | 84 | 225 | 0.0 | 0.0 | 0.00 | 0.00 | 0.00 | 43 | 1008.5 |
| 20260504193907 | 84 | 225 | 0.0 | 0.0 | 0.00 | 0.00 | 0.00 | 43 | 1008.6 |
| 20260504193319 | 84 | 225 | 0.0 | 0.0 | 0.00 | 0.00 | 0.00 | 43 | 1008.6 |
| 20260504192732 | 84 | 225 | 0.0 | 1.0 | 0.00 | 0.00 | 0.00 | 42 | 1008.5 |
| 20260504192145 | 84 | 225 | 0.0 | 1.0 | 0.00 | 0.00 | 0.00 | 42 | 1008.6 |
| 20260504191558 | 84 | 225 | 0.0 | 0.0 | 0.00 | 0.00 | 0.00 | 42 | 1008.5 |
| 20260504191011 | 84 | 270 | 0.0 | 0.0 | 0.00 | 0.00 | 0.00 | 42 | 1008.6 |
| 20260504190424 | 84 | 315 | 0.0 | 0.0 | 0.00 | 0.00 | 0.00 | 42 | 1008.4 |
| 20260504185837 | 84 | 270 | 0.0 | 0.0 | 0.00 | 0.00 | 0.00 | 42 | 1008.4 |
| 20260504185250 | 84 | 315 | 0.0 | 0.0 | 0.00 | 0.00 | 0.00 | 42 | 1008.5 |
| 20260504184703 | 85 | 270 | 0.0 | 0.0 | 0.00 | 0.00 | 0.00 | 42 | 1008.5 |
| 20260504184116 | 85 | 0 | 0.0 | 0.0 | 0.00 | 0.00 | 0.00 | 41 | 1008.4 |
| 20260504183529 | 85 | 315 | 0.0 | 0.0 | 0.00 | 0.00 | 0.00 | 41 | 1008.5 |
| 20260504182942 | 85 | 315 | 0.0 | 0.0 | 0.00 | 0.00 | 0.00 | 41 | 1008.8 |
| 20260504182355 | 85 | 315 | 0.0 | 0.0 | 0.00 | 0.00 | 0.00 | 41 | 1008.8 |
| 20260504181808 | 85 | 45 | 0.0 | 0.0 | 0.00 | 0.00 | 0.00 | 41 | 1008.8 |
| 20260504181221 | 85 | 270 | 0.0 | 0.0 | 0.00 | 0.00 | 0.00 | 41 | 1009.0 |
| 20260504180634 | 85 | 315 | 0.0 | 0.0 | 0.00 | 0.00 | 0.00 | 40 | 1009.1 |
| 20260504180047 | 85 | 315 | 0.0 | 0.0 | 0.00 | 0.00 | 0.00 | 40 | 1009.0 |
| 20260504175500 | 85 | 315 | 0.0 | 0.0 | 0.00 | 0.00 | 0.00 | 40 | 1009.0 |
| 20260504174913 | 85 | 0 | 0.0 | 1.0 | 0.00 | 0.00 | 0.00 | 40 | 1009.0 |
| 20260504174326 | 85 | 270 | 0.0 | 1.0 | 0.00 | 0.00 | 0.00 | 40 | 1009.1 |
| 20260504173739 | 85 | 270 | 0.0 | 1.0 | 0.00 | 0.00 | 0.00 | 40 | 1009.2 |
| 20260504173152 | 85 | 270 | 0.0 | 0.0 | 0.00 | 0.00 | 0.00 | 39 | 1009.3 |
| 20260504172605 | 85 | 315 | 0.0 | 0.0 | 0.00 | 0.00 | 0.00 | 39 | 1009.6 |
| 20260504172018 | 85 | 315 | 0.0 | 0.0 | 0.00 | 0.00 | 0.00 | 39 | 1009.6 |
| 20260504171431 | 85 | 270 | 0.0 | 0.0 | 0.00 | 0.00 | 0.00 | 39 | 1009.6 |
| 20260504170844 | 85 | 270 | 0.0 | 0.0 | 0.00 | 0.00 | 0.00 | 39 | 1009.7 |
| 20260504170257 | 85 | 225 | 0.0 | 0.0 | 0.00 | 0.00 | 0.00 | 39 | 1009.7 |
| 20260504150716 | 87 | 180 | 0.0 | 1.0 | 0.00 | 0.00 | 0.00 | 35 | 1010.5 |
| 20260504150129 | 87 | 225 | 0.0 | 2.0 | 0.00 | 0.00 | 0.00 | 35 | 1010.6 |
| 20260504140926 | 88 | 270 | 0.0 | 0.0 | 0.00 | 0.00 | 0.00 | 33 | 1010.2 |
| 20260504140339 | 88 | 270 | 0.0 | 1.0 | 0.00 | 0.00 | 0.00 | 33 | 1010.1 |
| 20260504130549 | 89 | 315 | 0.0 | 0.0 | 0.00 | 0.00 | 0.00 | 31 | 1009.7 |
| 20260504120211 | 90 | 225 | 0.0 | 1.0 | 0.00 | 0.00 | 0.00 | 28 | 1010.1 |
| 20260504110421 | 92 | 90 | 0.0 | 2.0 | 0.00 | 0.00 | 0.00 | 27 | 1010.0 |
| 20260504081637 | 100 | 225 | 0.0 | 2.0 | 0.00 | 0.00 | 0.00 | 23 | 1008.5 |
| 20260504081050 | 100 | 270 | 0.0 | 2.0 | 0.00 | 0.00 | 0.00 | 23 | 1008.3 |
| 20260504080503 | 101 | 270 | 0.0 | 2.0 | 0.00 | 0.00 | 0.00 | 23 | 1008.1 |
| 20260504070126 | 103 | 315 | 0.0 | 1.0 | 0.00 | 0.00 | 0.00 | 24 | 1007.7 |
| 20260504050545 | 102 | 225 | 0.0 | 3.0 | 0.00 | 0.00 | 0.00 | 26 | 1008.7 |
| 20260504045958 | 102 | 315 | 0.0 | 3.0 | 0.00 | 0.00 | 0.00 | 26 | 1008.8 |
| 20260504045411 | 102 | 270 | 0.0 | 3.0 | 0.00 | 0.00 | 0.00 | 26 | 1008.7 |
| 20260504044824 | 102 | 225 | 0.0 | 2.0 | 0.00 | 0.00 | 0.00 | 26 | 1008.9 |
| 20260504044237 | 102 | 225 | 0.0 | 2.0 | 0.00 | 0.00 | 0.00 | 26 | 1008.9 |
| 20260504043650 | 101 | 270 | 0.0 | 3.0 | 0.00 | 0.00 | 0.00 | 26 | 1009.0 |
| 20260504043103 | 101 | 45 | 0.0 | 3.0 | 0.00 | 0.00 | 0.00 | 26 | 1008.9 |
| 20260504042516 | 101 | 0 | 0.0 | 2.0 | 0.00 | 0.00 | 0.00 | 27 | 1009.0 |
| 20260504041929 | 101 | 270 | 0.0 | 2.0 | 0.00 | 0.00 | 0.00 | 27 | 1009.1 |
| 20260504041342 | 100 | 270 | 0.0 | 2.0 | 0.00 | 0.00 | 0.00 | 27 | 1009.1 |
| 20260504040755 | 100 | 225 | 0.0 | 3.0 | 0.00 | 0.00 | 0.00 | 27 | 1009.1 |
| 20260504040208 | 100 | 0 | 0.0 | 3.0 | 0.00 | 0.00 | 0.00 | 27 | 1009.0 |
| 20260504035621 | 100 | 225 | 0.0 | 2.0 | 0.00 | 0.00 | 0.00 | 27 | 1009.2 |
| 20260504035034 | 100 | 270 | 0.0 | 3.0 | 0.00 | 0.00 | 0.00 | 27 | 1009.3 |
| 20260504034447 | 100 | 315 | 0.0 | 3.0 | 0.00 | 0.00 | 0.00 | 27 | 1009.6 |
| 20260504033900 | 100 | 135 | 0.0 | 3.0 | 0.00 | 0.00 | 0.00 | 27 | 1009.4 |
| 20260504033313 | 101 | 315 | 0.0 | 3.0 | 0.00 | 0.00 | 0.00 | 27 | 1009.5 |
| 20260504032726 | 101 | 0 | 0.0 | 2.0 | 0.00 | 0.00 | 0.00 | 27 | 1009.4 |
| 20260504032139 | 101 | 315 | 0.0 | 2.0 | 0.00 | 0.00 | 0.00 | 27 | 1009.5 |
| 20260504031552 | 101 | 225 | 0.0 | 3.0 | 0.00 | 0.00 | 0.00 | 27 | 1009.4 |
| 20260504031005 | 101 | 180 | 0.0 | 3.0 | 0.00 | 0.00 | 0.00 | 27 | 1009.3 |
| 20260504030418 | 101 | 270 | 0.0 | 3.0 | 0.00 | 0.00 | 0.00 | 28 | 1009.3 |
| 20260504025831 | 101 | 135 | 0.0 | 3.0 | 0.00 | 0.00 | 0.00 | 28 | 1009.4 |
| 20260504025244 | 101 | 0 | 0.0 | 2.0 | 0.00 | 0.00 | 0.00 | 29 | 1009.3 |
| 20260504024657 | 101 | 315 | 0.0 | 2.0 | 0.00 | 0.00 | 0.00 | 29 | 1009.3 |
| 20260504024110 | 100 | 270 | 0.0 | 2.0 | 0.00 | 0.00 | 0.00 | 29 | 1009.2 |
| 20260504023523 | 100 | 270 | 0.0 | 2.0 | 0.00 | 0.00 | 0.00 | 30 | 1009.2 |
| 20260504022936 | 99 | 315 | 0.0 | 2.0 | 0.00 | 0.00 | 0.00 | 30 | 1009.2 |
| 20260504022349 | 99 | 225 | 0.0 | 2.0 | 0.00 | 0.00 | 0.00 | 31 | 1009.1 |
| 20260504021802 | 98 | 0 | 0.0 | 2.0 | 0.00 | 0.00 | 0.00 | 32 | 1009.2 |
| 20260504021214 | 98 | 315 | 0.0 | 2.0 | 0.00 | 0.00 | 0.00 | 32 | 1009.0 |
| 20260504020627 | 97 | 315 | 0.0 | 2.0 | 0.00 | 0.00 | 0.00 | 32 | 1009.2 |
| 20260504020040 | 97 | 270 | 0.0 | 2.0 | 0.00 | 0.00 | 0.00 | 32 | 1009.2 |
| 20260504015453 | 96 | 135 | 0.0 | 3.0 | 0.00 | 0.00 | 0.00 | 32 | 1009.3 |
| 20260504014906 | 96 | 315 | 0.0 | 3.0 | 0.00 | 0.00 | 0.00 | 32 | 1009.4 |